Previsão horária em Cerano

Hoje, 3 Agosto, Terça-feira

Tempo Temperatura Precipitação Vento Pressão Humidade
00:00 +14°C° 0.2 mm 1 m/s 598 mmHg 96%
01:00 +14°C° 0.2 mm 1 m/s 598 mmHg 96%
02:00 +14°C° 0.2 mm 1 m/s 598 mmHg 96%
03:00 +13°C° 0.1 mm 0 m/s 598 mmHg 96%
04:00 +13°C° 0.1 mm 0 m/s 598 mmHg 95%
05:00 +13°C° 0.1 mm 0 m/s 598 mmHg 95%
06:00 +14°C° 0 mm 0 m/s 598 mmHg 92%
07:00 +15°C° 0 mm 0 m/s 599 mmHg 89%
08:00 +18°C° 0 mm 1 m/s 599 mmHg 86%
09:00 +20°C° 0.3 mm 1 m/s 600 mmHg 77%
10:00 +21°C° 0.3 mm 0 m/s 600 mmHg 67%
11:00 +23°C° 0.3 mm 0 m/s 601 mmHg 58%
12:00 +25°C° 0.6 mm 1 m/s 600 mmHg 58%
13:00 +25°C° 0.6 mm 1 m/s 600 mmHg 58%
14:00 +25°C° 0.6 mm 1 m/s 599 mmHg 58%
15:00 +24°C° 0.7 mm 1 m/s 599 mmHg 63%
16:00 +23°C° 0.7 mm 1 m/s 598 mmHg 67%
17:00 +22°C° 0.7 mm 1 m/s 598 mmHg 72%
18:00 +20°C° 0.6 mm 1 m/s 597 mmHg 79%
19:00 +18°C° 0.6 mm 1 m/s 597 mmHg 86%
20:00 +15°C° 0.6 mm 1 m/s 597 mmHg 93%
21:00 +15°C° 0.6 mm 1 m/s 597 mmHg 94%
22:00 +15°C° 0.6 mm 1 m/s 597 mmHg 95%
23:00 +14°C° 0.6 mm 1 m/s 597 mmHg 96%

Amanhã, 4 Agosto, Quarta-feira

Tempo Temperatura Precipitação Vento Pressão Humidade
00:00 +13°C° 0.5 mm 0 m/s 597 mmHg 96%
01:00 +13°C° 0.5 mm 0 m/s 597 mmHg 97%
02:00 +13°C° 0.5 mm 0 m/s 597 mmHg 97%
03:00 +13°C° 0.2 mm 0 m/s 597 mmHg 97%
04:00 +13°C° 0.2 mm 0 m/s 597 mmHg 96%
05:00 +13°C° 0.2 mm 0 m/s 597 mmHg 96%
06:00 +14°C° 0.2 mm 0 m/s 597 mmHg 94%
07:00 +15°C° 0.2 mm 0 m/s 598 mmHg 93%
08:00 +15°C° 0.2 mm 0 m/s 598 mmHg 91%
09:00 +17°C° 0.5 mm 0 m/s 599 mmHg 85%
10:00 +18°C° 0.5 mm 0 m/s 599 mmHg 79%
11:00 +20°C° 0.5 mm 0 m/s 599 mmHg 73%
12:00 +20°C° 0.5 mm 0 m/s 599 mmHg 69%
13:00 +21°C° 0.5 mm 0 m/s 599 mmHg 66%
14:00 +22°C° 0.5 mm 0 m/s 599 mmHg 62%
15:00 +21°C° 0.8 mm 0 m/s 598 mmHg 68%
16:00 +22°C° 0.8 mm 1 m/s 598 mmHg 73%
17:00 +21°C° 0.8 mm 1 m/s 597 mmHg 79%
18:00 +19°C° 1.2 mm 1 m/s 597 mmHg 85%
19:00 +18°C° 1.2 mm 1 m/s 597 mmHg 90%
20:00 +15°C° 1.2 mm 1 m/s 597 mmHg 96%
21:00 +15°C° 0.7 mm 1 m/s 597 mmHg 96%
22:00 +14°C° 0.7 mm 0 m/s 598 mmHg 96%
23:00 +14°C° 0.7 mm 0 m/s 598 mmHg 96%

Depois de amanhã, 5 Agosto, Quinta-feira

Tempo Temperatura Precipitação Vento Pressão Humidade
00:00 +14°C° 0.8 mm 0 m/s 598 mmHg 97%
01:00 +14°C° 0.8 mm 0 m/s 598 mmHg 97%
02:00 +14°C° 0.8 mm 0 m/s 597 mmHg 98%
03:00 +14°C° 2.1 mm 0 m/s 597 mmHg 98%
04:00 +14°C° 2.1 mm 0 m/s 597 mmHg 98%
05:00 +14°C° 2.1 mm 0 m/s 598 mmHg 98%
06:00 +14°C° 0.2 mm 0 m/s 598 mmHg 95%
07:00 +15°C° 0.2 mm 0 m/s 599 mmHg 93%
08:00 +16°C° 0.2 mm 0 m/s 599 mmHg 90%
09:00 +18°C° 0.4 mm 0 m/s 600 mmHg 82%
10:00 +21°C° 0.4 mm 1 m/s 600 mmHg 74%
11:00 +23°C° 0.4 mm 1 m/s 600 mmHg 67%
12:00 +23°C° 0.7 mm 1 m/s 600 mmHg 66%
13:00 +24°C° 0.7 mm 1 m/s 599 mmHg 65%
14:00 +24°C° 0.7 mm 1 m/s 599 mmHg 65%
15:00 +22°C° 0.8 mm 1 m/s 598 mmHg 73%
16:00 +21°C° 0.8 mm 1 m/s 598 mmHg 81%
17:00 +20°C° 0.8 mm 1 m/s 597 mmHg 89%
18:00 +18°C° 1.1 mm 1 m/s 597 mmHg 91%
19:00 +16°C° 1.1 mm 1 m/s 597 mmHg 94%
20:00 +14°C° 1.1 mm 0 m/s 597 mmHg 96%
21:00 +14°C° 1.5 mm 0 m/s 598 mmHg 97%
22:00 +15°C° 1.5 mm 1 m/s 598 mmHg 97%
23:00 +15°C° 1.5 mm 1 m/s 599 mmHg 98%

6 Agosto, Sexta-feira

Tempo Temperatura Precipitação Vento Pressão Humidade
00:00 +15°C° 2 mm 1 m/s 598 mmHg 98%
01:00 +15°C° 2 mm 1 m/s 598 mmHg 98%
02:00 +15°C° 2 mm 1 m/s 598 mmHg 98%
03:00 +15°C° 1 mm 1 m/s 598 mmHg 98%
04:00 +15°C° 1 mm 1 m/s 598 mmHg 98%
05:00 +14°C° 1 mm 1 m/s 598 mmHg 98%
06:00 +15°C° 0.5 mm 1 m/s 598 mmHg 97%
07:00 +15°C° 0.5 mm 1 m/s 599 mmHg 96%
08:00 +15°C° 0.5 mm 1 m/s 599 mmHg 95%
09:00 +16°C° 0.1 mm 1 m/s 599 mmHg 91%
10:00 +18°C° 0.1 mm 1 m/s 599 mmHg 87%
11:00 +19°C° 0.1 mm 1 m/s 599 mmHg 83%
12:00 +20°C° 0 mm 1 m/s 599 mmHg 77%
13:00 +21°C° 0 mm 1 m/s 599 mmHg 71%
14:00 +22°C° 0 mm 1 m/s 599 mmHg 66%
15:00 +21°C° 0.1 mm 1 m/s 599 mmHg 70%
16:00 +21°C° 0.1 mm 1 m/s 598 mmHg 73%
17:00 +20°C° 0.1 mm 1 m/s 598 mmHg 77%
18:00 +19°C° 0.2 mm 1 m/s 598 mmHg 82%
19:00 +16°C° 0.2 mm 1 m/s 598 mmHg 87%
20:00 +15°C° 0.2 mm 1 m/s 597 mmHg 92%
21:00 +15°C° 0.1 mm 1 m/s 598 mmHg 91%
22:00 +15°C° 0.1 mm 1 m/s 598 mmHg 91%
23:00 +13°C° 0.1 mm 0 m/s 598 mmHg 90%

7 Agosto, Sábado

Tempo Temperatura Precipitação Vento Pressão Humidade
00:00 +13°C° 0.3 mm 0 m/s 597 mmHg 92%
01:00 +13°C° 0.3 mm 0 m/s 597 mmHg 93%
02:00 +13°C° 0.3 mm 0 m/s 597 mmHg 94%
03:00 +13°C° 0.3 mm 0 m/s 597 mmHg 95%
04:00 +12°C° 0.3 mm 0 m/s 597 mmHg 95%
05:00 +12°C° 0.3 mm 0 m/s 597 mmHg 96%
06:00 +13°C° 0 mm 0 m/s 598 mmHg 93%
07:00 +14°C° 0 mm 0 m/s 598 mmHg 91%
08:00 +15°C° 0 mm 0 m/s 599 mmHg 88%
09:00 +17°C° 0 mm 0 m/s 599 mmHg 79%
10:00 +19°C° 0 mm 0 m/s 600 mmHg 70%
11:00 +21°C° 0 mm 0 m/s 600 mmHg 62%
12:00 +24°C° 0.2 mm 1 m/s 600 mmHg 58%
13:00 +25°C° 0.2 mm 1 m/s 599 mmHg 54%
14:00 +26°C° 0.2 mm 2 m/s 599 mmHg 50%
15:00 +25°C° 0.3 mm 1 m/s 599 mmHg 56%
16:00 +24°C° 0.3 mm 1 m/s 598 mmHg 61%
17:00 +21°C° 0.3 mm 0 m/s 598 mmHg 66%
18:00 +21°C° 0.5 mm 1 m/s 597 mmHg 75%
19:00 +18°C° 0.6 mm 1 m/s 597 mmHg 84%
20:00 +15°C° 0.6 mm 1 m/s 596 mmHg 92%
21:00 +15°C° 0.7 mm 1 m/s 597 mmHg 93%
22:00 +15°C° 0.7 mm 1 m/s 597 mmHg 94%
23:00 +15°C° 0.7 mm 1 m/s 597 mmHg 95%

8 Agosto, Domingo

Tempo Temperatura Precipitação Vento Pressão Humidade
00:00 +13°C° 0.1 mm 0 m/s 597 mmHg 95%
01:00 +13°C° 0.1 mm 0 m/s 596 mmHg 95%
02:00 +12°C° 0.1 mm 0 m/s 596 mmHg 96%
03:00 +12°C° 0 mm 0 m/s 596 mmHg 96%
04:00 +12°C° 0 mm 0 m/s 596 mmHg 97%
05:00 +11°C° 0 mm 0 m/s 596 mmHg 97%
06:00 +13°C° 0 mm 0 m/s 597 mmHg 93%
07:00 +16°C° 0 mm 1 m/s 597 mmHg 89%
08:00 +18°C° 0 mm 1 m/s 598 mmHg 85%
09:00 +20°C° 0 mm 1 m/s 599 mmHg 74%
10:00 +23°C° 0 mm 2 m/s 599 mmHg 63%
11:00 +25°C° 0 mm 2 m/s 600 mmHg 52%
12:00 +24°C° 0.1 mm 2 m/s 599 mmHg 54%
13:00 +24°C° 0.1 mm 2 m/s 598 mmHg 57%
14:00 +24°C° 0.1 mm 2 m/s 597 mmHg 59%
15:00 +23°C° 0.3 mm 2 m/s 597 mmHg 64%
16:00 +23°C° 0.3 mm 1 m/s 597 mmHg 69%
17:00 +20°C° 0.3 mm 0 m/s 596 mmHg 75%
18:00 +20°C° 0.4 mm 1 m/s 596 mmHg 79%
19:00 +19°C° 0.4 mm 1 m/s 596 mmHg 84%
20:00 +16°C° 0.4 mm 1 m/s 596 mmHg 88%
21:00 +16°C° 0.2 mm 1 m/s 596 mmHg 90%
22:00 +15°C° 0.2 mm 1 m/s 596 mmHg 91%
23:00 +14°C° 0.2 mm 0 m/s 596 mmHg 93%
Mostrar mais

Necessitamos do seu Consentimento

A Meteoprog e os seus Fornecedores de Serviços podem armazenar e aceder a dados pessoais como cookies, identificadores do dispositivo ou outras tecnologias semelhantes existentes no seu dispositivo e processar estes dados para personalizar conteúdos e anúncios, assim como funcionalidades nas redes sociais e análise de tráfego.

  • Armazenar e/ou aceder a informações no seu dispositivo

    Os cookies, identificadores do dispositivo ou outras informações podem ser armazenados ou acedidos no seu dispositivo, para os fins acima indicados.

  • Anúncios e conteúdos personalizados, medição de anúncios e conteúdos, dados sobre o público-alvo e desenvolvimento de produtos

    Os anúncios e os conteúdos podem ser personalizados com base num perfil. Podem ser adicionados dados adicionais para uma maior personalização dos anúncios e dos conteúdos. A eficácia dos anúncios e dos conteúdos pode ser medida. Podem ser obtidas informações sobre o público que visualizou os anúncios e os conteúdos. Estes dados podem ser usados para desenvolver ou melhorar sistemas, softwares ou a experiência do utilizador.

Ao clicar em "Eu concordo”, permitirá o uso de cookies, identificadores do dispositivo e web beacons mencionados ou outras tecnologias semelhantes. As configurações do navegador do seu dispositivo podem ser alteradas.

Para certos fins, podem ser invocados interesses legítimos ao invés de consentimento. Pode ler mais informação sobre este assunto na nossa Política de Privacidade e Cookies.